XW-3 (CAS-9)

Last updated on Tue Oct 28 2025 00:03:13 GMT+0000 (Coordinated Universal Time)

1 50466U 21131B 25300.54642786 .00000959 00000+0 31197-3 0 9997 2 50466 98.5071 29.2005 0005213 81.6860 278.4920 14.41015888201602
UTC large
Height (km)
Speed (km/s)
/
Latitude / Longitude
Inclination (degrees)
Orbital Period (minutes)
Azimuth
Elevation
Range (km)
Doppler Factor

Next 0 passes for location: London (51.5072 / 0.1276)

Sorry there are no passes over London.